STARLINK-30897, 58360

Orbit data source: Space-Track

STARLINK-30897, 58360 is a payload satellite owned by SpaceX/Seattle (US) in LEO that was launched on Sat, 18 Nov 2023 UTC via an FALCON 9 launch vehicle from the Air Force Eastern Test Range (AFETR). Payload-class satellites include a variety of spacecraft equipped with specific instruments for various scientific and technological missions. These include communications satellites like Starlink; space stations such as the ISS; scientific satellites like the Hubble; Earth observation satellites from companies like Planet Labs, Umbra, and HawkEye 360; GPS; miniature CubeSats for education and research; and military/defense satellites.

Loading next visibility...
Identifier
58360, 2023-177K
Orbit
LEO
Country
Flag of USUS
Related business
Manufacturer
SpaceX/Seattle
Mission
Operational Commercial Communications
Bus & Motor
STARLINK V2M, Unknown motor
Mass
730 kg wet, ~700 kg dry
Launch date (UTC)
2023-11-18 (3 years ago)
Launch vehicle
FALCON 9
Launch site
Air Force Eastern Test Range (AFETR)
Object type
Payload
Rocket body
Debris
Shape & HBR
Box + 2 Pan, 17.7 m
Radar Cross Section
33.884 m², Large (>1 m²)

Expand to show TLE details & history
Last TLE update: 2 days ago

TLE from 2 days ago
0 STARLINK-30897
1 58360U 23177K   26171.20410584  .00000354  00000-0  22385-4 0  9999
2 58360  43.0038 146.2935 0001458 270.3940  89.6744 15.27577521143733
Epoch: 2026-06-20T04:53Z
TLE epoch observation values (Epoch: 2026-06-20T04:53:54.744Z)
Latitude
-0.00006°
Longitude
164.39324°
Altitude
482.827 km
Speed
7.626 km/s
True Right ascension
09h 45m 10s
True Declination
0° 00' 00"
Sunlit
Object was in daylight at epoch
Visualization orbit readout
Latitude
Unknown
Longitude
Unknown
Altitude
Unknown
Speed
Unknown
Apparent Right ascension
Unknown
Apparent Declination
Unknown
Sunlit
N/A
Visualization observer readout
Local Sidereal Time
21:24:58
Azimuth
Unknown
Elevation
Unknown
Doppler factor
Unknown
Orbital elements
Apogee altitude
486.002 km
Perigee altitude
484 km
Semi-major axis
6,863.138 km
Eccentricity
0.00015
Inclination
43.0038°
RAAN
146.2935°
Arg. of periapsis
270.394°
True anomaly
89.69111°
Mean anomaly
89.6744°
Eccentric anomaly
89.68275°
Mean motion
3.81732 °/min
Orbital period
94.31 mins
BSTAR
0.000022385
Loading maneuver chart data...
Computing Atmospheric mass density...
Loading historical data...
Loading historical data...
Loading historical data...
Loading historical data...
Loading historical data...
Loading historical data...
Loading historical data...

Documentation

Showing up to 5 results
|